| time (UTC) | temp F | wind direction | speed MPH | gust MPH | rain 1hr in | rain 24hr in | rain mn in | humidity % | barometer mb |
| 20260509005544 | 48 | 30 | 0.0 | 0.0 | 0.00 | 0.00 | 0.00 | 86 | 1018.4 |
| 20260509005030 | 49 | 30 | 0.0 | 1.0 | 0.00 | 0.00 | 0.00 | 85 | 1018.4 |
| 20260509004535 | 49 | 30 | 0.0 | 1.0 | 0.00 | 0.00 | 0.00 | 85 | 1018.4 |
| 20260509004035 | 49 | 30 | 0.0 | 1.0 | 0.00 | 0.00 | 0.00 | 85 | 1018.3 |
| 20260509003558 | 49 | 30 | 0.0 | 0.0 | 0.00 | 0.00 | 0.00 | 85 | 1018.3 |
| 20260509003026 | 49 | 30 | 0.0 | 1.0 | 0.00 | 0.00 | 0.00 | 85 | 1018.3 |
| 20260509002609 | 49 | 30 | 0.0 | 1.0 | 0.00 | 0.00 | 0.00 | 85 | 1018.3 |
| 20260509002101 | 49 | 30 | 0.0 | 1.0 | 0.00 | 0.00 | 0.00 | 85 | 1018.3 |
| 20260509001539 | 49 | 30 | 0.0 | 1.0 | 0.00 | 0.00 | 0.00 | 86 | 1018.3 |
| 20260509001033 | 49 | 30 | 0.0 | 1.0 | 0.00 | 0.00 | 0.00 | 86 | 1018.3 |
| 20260509000600 | 49 | 30 | 0.0 | 1.0 | 0.00 | 0.00 | 0.00 | 87 | 1018.3 |
| 20260509000040 | 49 | 30 | 0.0 | 0.0 | 0.00 | 0.00 | 0.00 | 87 | 1018.3 |
| 20260508235533 | 49 | 30 | 0.0 | 0.0 | 0.00 | 0.00 | 0.00 | 88 | 1018.3 |
| 20260508235038 | 49 | 30 | 0.0 | 0.0 | 0.00 | 0.00 | 0.00 | 88 | 1018.3 |
| 20260508234530 | 49 | 30 | 0.0 | 0.0 | 0.00 | 0.00 | 0.00 | 89 | 1018.3 |
| 20260508234027 | 49 | 30 | 0.0 | 0.0 | 0.00 | 0.00 | 0.00 | 89 | 1018.4 |
| 20260508233556 | 49 | 30 | 0.0 | 1.0 | 0.00 | 0.00 | 0.00 | 89 | 1018.3 |
| 20260508233042 | 49 | 30 | 0.0 | 1.0 | 0.00 | 0.00 | 0.00 | 89 | 1018.3 |
| 20260508232544 | 49 | 30 | 0.0 | 1.0 | 0.00 | 0.00 | 0.00 | 89 | 1018.4 |
| 20260508232033 | 49 | 30 | 0.0 | 1.0 | 0.00 | 0.00 | 0.00 | 89 | 1018.3 |
| 20260508231538 | 49 | 30 | 0.0 | 0.0 | 0.00 | 0.00 | 0.00 | 89 | 1018.3 |
| 20260508231036 | 49 | 30 | 0.0 | 0.0 | 0.00 | 0.00 | 0.00 | 89 | 1018.3 |
| 20260508230535 | 49 | 30 | 0.0 | 0.0 | 0.00 | 0.00 | 0.00 | 89 | 1018.3 |
| 20260508230029 | 49 | 30 | 0.0 | 0.0 | 0.00 | 0.00 | 0.00 | 89 | 1018.2 |
| 20260508225544 | 49 | 30 | 0.0 | 0.0 | 0.00 | 0.00 | 0.00 | 88 | 1018.1 |
| 20260508225040 | 49 | 30 | 0.0 | 0.0 | 0.00 | 0.00 | 0.00 | 88 | 1018.2 |
| 20260508224610 | 50 | 30 | 0.0 | 1.0 | 0.00 | 0.00 | 0.00 | 88 | 1018.3 |
| 20260508224043 | 50 | 30 | 0.0 | 1.0 | 0.00 | 0.00 | 0.00 | 87 | 1018.3 |
| 20260508223531 | 50 | 30 | 0.0 | 0.0 | 0.00 | 0.00 | 0.00 | 86 | 1018.4 |
| 20260508223045 | 50 | 30 | 0.0 | 0.0 | 0.00 | 0.00 | 0.00 | 86 | 1018.3 |
| 20260508222535 | 50 | 30 | 0.0 | 0.0 | 0.00 | 0.00 | 0.00 | 85 | 1018.4 |
| 20260508222027 | 50 | 30 | 0.0 | 0.0 | 0.00 | 0.00 | 0.00 | 85 | 1018.3 |
| 20260508221545 | 50 | 30 | 0.0 | 0.0 | 0.00 | 0.00 | 0.00 | 85 | 1018.3 |
| 20260508221045 | 50 | 30 | 0.0 | 0.0 | 0.00 | 0.00 | 0.00 | 85 | 1018.3 |
| 20260508220547 | 51 | 30 | 0.0 | 0.0 | 0.00 | 0.00 | 0.00 | 85 | 1018.3 |
| 20260508220029 | 51 | 30 | 0.0 | 0.0 | 0.00 | 0.00 | 0.00 | 84 | 1018.3 |
| 20260508215540 | 51 | 30 | 0.0 | 0.0 | 0.00 | 0.00 | 0.00 | 83 | 1018.3 |
| 20260508215025 | 51 | 30 | 0.0 | 2.0 | 0.00 | 0.00 | 0.00 | 82 | 1018.2 |
| 20260508214543 | 51 | 30 | 0.0 | 2.0 | 0.00 | 0.00 | 0.00 | 81 | 1018.3 |
| 20260508214032 | 51 | 30 | 0.0 | 0.0 | 0.00 | 0.00 | 0.00 | 81 | 1018.3 |
| 20260508213600 | 52 | 30 | 0.0 | 1.0 | 0.00 | 0.00 | 0.00 | 81 | 1018.3 |
| 20260508213030 | 52 | 30 | 0.0 | 1.0 | 0.00 | 0.00 | 0.00 | 80 | 1018.3 |
| 20260508212556 | 52 | 30 | 0.0 | 0.0 | 0.00 | 0.00 | 0.00 | 79 | 1018.3 |
| 20260508212025 | 52 | 30 | 0.0 | 0.0 | 0.00 | 0.00 | 0.00 | 79 | 1018.3 |
| 20260508211537 | 52 | 30 | 0.0 | 0.0 | 0.00 | 0.00 | 0.00 | 79 | 1018.3 |
| 20260508211045 | 52 | 30 | 0.0 | 0.0 | 0.00 | 0.00 | 0.00 | 78 | 1018.3 |
| 20260508210609 | 53 | 30 | 0.0 | 0.0 | 0.00 | 0.00 | 0.00 | 77 | 1018.3 |
| 20260508210034 | 53 | 30 | 0.0 | 0.0 | 0.00 | 0.00 | 0.00 | 76 | 1018.3 |
| 20260508205546 | 53 | 30 | 0.0 | 0.0 | 0.00 | 0.00 | 0.00 | 75 | 1018.2 |
| 20260508205038 | 54 | 30 | 0.0 | 0.0 | 0.00 | 0.00 | 0.00 | 74 | 1018.2 |
| 20260508204552 | 54 | 30 | 0.0 | 2.0 | 0.00 | 0.00 | 0.00 | 73 | 1018.1 |
| 20260508204050 | 54 | 30 | 1.0 | 2.0 | 0.00 | 0.00 | 0.00 | 72 | 1018.1 |
| 20260508203534 | 54 | 30 | 0.0 | 2.0 | 0.00 | 0.00 | 0.00 | 72 | 1018.2 |
| 20260508203101 | 55 | 30 | 0.0 | 2.0 | 0.00 | 0.00 | 0.00 | 72 | 1018.2 |
| 20260508202544 | 55 | 30 | 0.0 | 0.0 | 0.00 | 0.00 | 0.00 | 70 | 1018.2 |
| 20260508202031 | 56 | 30 | 0.0 | 2.0 | 0.00 | 0.00 | 0.00 | 70 | 1018.2 |
| 20260508201618 | 56 | 30 | 0.0 | 2.0 | 0.00 | 0.00 | 0.00 | 70 | 1018.2 |
| 20260508201045 | 56 | 17 | 0.0 | 2.0 | 0.00 | 0.00 | 0.00 | 69 | 1018.2 |
| 20260508200540 | 56 | 17 | 0.0 | 2.0 | 0.00 | 0.00 | 0.00 | 69 | 1018.2 |
| 20260508200028 | 57 | 40 | 0.0 | 2.0 | 0.00 | 0.00 | 0.00 | 69 | 1018.2 |
| 20260508195535 | 57 | 40 | 0.0 | 1.0 | 0.00 | 0.00 | 0.00 | 69 | 1018.2 |
| 20260508195059 | 57 | 40 | 0.0 | 1.0 | 0.00 | 0.00 | 0.00 | 69 | 1018.1 |
| 20260508194554 | 57 | 40 | 0.0 | 1.0 | 0.00 | 0.00 | 0.00 | 69 | 1018.1 |
| 20260508194101 | 57 | 40 | 0.0 | 2.0 | 0.00 | 0.00 | 0.00 | 69 | 1018.1 |
| 20260508193542 | 58 | 9 | 0.0 | 2.0 | 0.00 | 0.00 | 0.00 | 69 | 1018.1 |
| 20260508193046 | 58 | 9 | 0.0 | 2.0 | 0.00 | 0.00 | 0.00 | 68 | 1018.0 |
| 20260508192540 | 58 | 9 | 0.0 | 2.0 | 0.00 | 0.00 | 0.00 | 67 | 1018.0 |
| 20260508192040 | 58 | 35 | 0.0 | 1.0 | 0.00 | 0.00 | 0.00 | 66 | 1017.9 |
| 20260508191543 | 58 | 355 | 0.0 | 3.0 | 0.00 | 0.00 | 0.00 | 67 | 1017.9 |
| 20260508191032 | 58 | 32 | 1.0 | 4.0 | 0.00 | 0.00 | 0.00 | 66 | 1017.7 |
| 20260508190549 | 58 | 35 | 0.0 | 4.0 | 0.00 | 0.00 | 0.00 | 65 | 1017.7 |
| 20260508190040 | 58 | 342 | 0.0 | 4.0 | 0.00 | 0.00 | 0.00 | 65 | 1017.7 |
| 20260508185550 | 58 | 18 | 1.0 | 4.0 | 0.00 | 0.00 | 0.00 | 64 | 1017.6 |
| 20260508185042 | 58 | 48 | 0.0 | 2.0 | 0.00 | 0.00 | 0.00 | 64 | 1017.5 |
| 20260508184552 | 59 | 5 | 0.0 | 1.0 | 0.00 | 0.00 | 0.00 | 64 | 1017.5 |
| 20260508184047 | 59 | 17 | 0.0 | 2.0 | 0.00 | 0.00 | 0.00 | 63 | 1017.4 |
| 20260508183536 | 59 | 43 | 1.0 | 2.0 | 0.00 | 0.00 | 0.00 | 61 | 1017.4 |
| 20260508183055 | 60 | 35 | 0.0 | 2.0 | 0.00 | 0.00 | 0.00 | 60 | 1017.3 |
| 20260508182539 | 60 | 11 | 0.0 | 3.0 | 0.00 | 0.00 | 0.00 | 60 | 1017.3 |
| 20260508182037 | 60 | 22 | 1.0 | 3.0 | 0.00 | 0.00 | 0.00 | 58 | 1017.3 |
| 20260508181530 | 61 | 34 | 1.0 | 3.0 | 0.00 | 0.00 | 0.00 | 58 | 1017.3 |
| 20260508181030 | 61 | 34 | 1.0 | 4.0 | 0.00 | 0.00 | 0.00 | 57 | 1017.2 |
| 20260508180532 | 61 | 28 | 2.0 | 4.0 | 0.00 | 0.00 | 0.00 | 57 | 1017.2 |
| 20260508180027 | 61 | 53 | 1.0 | 3.0 | 0.00 | 0.00 | 0.00 | 58 | 1017.2 |
| 20260508175605 | 61 | 86 | 2.0 | 3.0 | 0.00 | 0.00 | 0.00 | 56 | 1017.1 |
| 20260508175051 | 61 | 14 | 0.0 | 4.0 | 0.00 | 0.00 | 0.00 | 56 | 1017.1 |
| 20260508174537 | 62 | 31 | 1.0 | 3.0 | 0.00 | 0.00 | 0.00 | 55 | 1017.1 |
| 20260508174029 | 62 | 30 | 2.0 | 5.0 | 0.00 | 0.00 | 0.00 | 55 | 1017.1 |
| 20260508173547 | 62 | 49 | 2.0 | 5.0 | 0.00 | 0.00 | 0.00 | 56 | 1017.1 |
| 20260508173038 | 62 | 71 | 1.0 | 4.0 | 0.00 | 0.00 | 0.00 | 57 | 1017.0 |
| 20260508172545 | 62 | 26 | 0.0 | 4.0 | 0.00 | 0.00 | 0.00 | 57 | 1016.9 |
| 20260508172035 | 62 | 9 | 1.0 | 4.0 | 0.00 | 0.00 | 0.00 | 56 | 1017.0 |
| 20260508171617 | 62 | 38 | 0.0 | 4.0 | 0.00 | 0.00 | 0.00 | 56 | 1016.9 |
| 20260508171039 | 62 | 18 | 2.0 | 4.0 | 0.00 | 0.00 | 0.00 | 57 | 1016.9 |
| 20260508170548 | 62 | 40 | 2.0 | 3.0 | 0.00 | 0.00 | 0.00 | 55 | 1016.9 |
| 20260508170030 | 63 | 49 | 2.0 | 4.0 | 0.00 | 0.00 | 0.00 | 57 | 1016.9 |
| 20260508165531 | 62 | 58 | 0.0 | 4.0 | 0.00 | 0.00 | 0.00 | 57 | 1016.9 |
| 20260508165029 | 63 | 76 | 2.0 | 4.0 | 0.00 | 0.00 | 0.00 | 56 | 1016.8 |
| 20260508164534 | 63 | 80 | 1.0 | 4.0 | 0.00 | 0.00 | 0.00 | 55 | 1016.7 |
| 20260508164029 | 63 | 20 | 0.0 | 5.0 | 0.00 | 0.00 | 0.00 | 57 | 1016.7 |
| 20260508163540 | 63 | 100 | 0.0 | 6.0 | 0.00 | 0.00 | 0.00 | 54 | 1016.7 |
| 20260508163026 | 63 | 355 | 2.0 | 6.0 | 0.00 | 0.00 | 0.00 | 56 | 1016.7 |
| 20260508162537 | 64 | 107 | 1.0 | 6.0 | 0.00 | 0.00 | 0.00 | 54 | 1016.7 |
| 20260508162103 | 64 | 71 | 2.0 | 6.0 | 0.00 | 0.00 | 0.00 | 54 | 1016.6 |
| 20260508161556 | 64 | 74 | 2.0 | 5.0 | 0.00 | 0.00 | 0.00 | 52 | 1016.6 |
| 20260508161049 | 64 | 34 | 3.0 | 8.0 | 0.00 | 0.00 | 0.00 | 55 | 1016.7 |
| 20260508160541 | 64 | 36 | 2.0 | 8.0 | 0.00 | 0.00 | 0.00 | 55 | 1016.6 |
| 20260508160027 | 64 | 32 | 1.0 | 7.0 | 0.00 | 0.00 | 0.00 | 55 | 1016.6 |
| 20260508155607 | 65 | 42 | 2.0 | 5.0 | 0.00 | 0.00 | 0.00 | 55 | 1016.6 |
| 20260508155053 | 65 | 86 | 3.0 | 7.0 | 0.00 | 0.00 | 0.00 | 52 | 1016.6 |
| 20260508154542 | 64 | 81 | 2.0 | 7.0 | 0.00 | 0.00 | 0.00 | 52 | 1016.7 |
| 20260508154100 | 65 | 94 | 2.0 | 7.0 | 0.00 | 0.00 | 0.00 | 51 | 1016.7 |
| 20260508153607 | 65 | 59 | 2.0 | 6.0 | 0.00 | 0.00 | 0.00 | 51 | 1016.7 |
| 20260508153056 | 65 | 360 | 3.0 | 6.0 | 0.00 | 0.00 | 0.00 | 53 | 1016.7 |
| 20260508152533 | 65 | 44 | 2.0 | 5.0 | 0.00 | 0.00 | 0.00 | 54 | 1016.7 |
| 20260508152038 | 65 | 42 | 3.0 | 5.0 | 0.00 | 0.00 | 0.00 | 51 | 1016.8 |
| 20260508151534 | 64 | 27 | 1.0 | 5.0 | 0.00 | 0.00 | 0.00 | 54 | 1016.8 |
| 20260508151051 | 64 | 9 | 2.0 | 5.0 | 0.00 | 0.00 | 0.00 | 53 | 1016.8 |
| 20260508150538 | 64 | 360 | 1.0 | 5.0 | 0.00 | 0.00 | 0.00 | 55 | 1016.9 |
| 20260508150033 | 64 | 17 | 3.0 | 5.0 | 0.00 | 0.00 | 0.00 | 53 | 1016.9 |
| 20260508145541 | 64 | 40 | 2.0 | 5.0 | 0.00 | 0.00 | 0.00 | 52 | 1017.0 |
| 20260508145048 | 64 | 81 | 2.0 | 5.0 | 0.00 | 0.00 | 0.00 | 53 | 1016.9 |
| 20260508144556 | 64 | 24 | 2.0 | 5.0 | 0.00 | 0.00 | 0.00 | 53 | 1016.9 |
| 20260508144042 | 64 | 107 | 2.0 | 4.0 | 0.00 | 0.00 | 0.00 | 53 | 1016.9 |
| 20260508143543 | 64 | 193 | 1.0 | 5.0 | 0.00 | 0.00 | 0.00 | 53 | 1016.9 |
| 20260508143126 | 63 | 286 | 0.0 | 5.0 | 0.00 | 0.00 | 0.00 | 51 | 1016.9 |
| 20260508142544 | 64 | 5 | 2.0 | 4.0 | 0.00 | 0.00 | 0.00 | 54 | 1017.0 |
| 20260508142048 | 64 | 12 | 2.0 | 5.0 | 0.00 | 0.00 | 0.00 | 56 | 1017.0 |
| 20260508141559 | 63 | 74 | 1.0 | 4.0 | 0.00 | 0.00 | 0.00 | 56 | 1017.0 |
| 20260508141106 | 64 | 89 | 1.0 | 5.0 | 0.00 | 0.00 | 0.00 | 54 | 1017.1 |
| 20260508140544 | 64 | 23 | 2.0 | 5.0 | 0.00 | 0.00 | 0.00 | 53 | 1017.0 |
| 20260508140031 | 64 | 52 | 1.0 | 4.0 | 0.00 | 0.00 | 0.00 | 55 | 1017.1 |
| 20260508135534 | 64 | 94 | 2.0 | 3.0 | 0.00 | 0.00 | 0.00 | 53 | 1017.1 |
| 20260508135038 | 64 | 308 | 2.0 | 4.0 | 0.00 | 0.00 | 0.00 | 53 | 1017.2 |
| 20260508134605 | 64 | 138 | 1.0 | 4.0 | 0.00 | 0.00 | 0.00 | 52 | 1017.2 |
| 20260508134028 | 64 | 79 | 0.0 | 2.0 | 0.00 | 0.00 | 0.00 | 54 | 1017.1 |
| 20260508133554 | 64 | 36 | 0.0 | 2.0 | 0.00 | 0.00 | 0.00 | 52 | 1017.1 |
| 20260508133042 | 64 | 5 | 0.0 | 3.0 | 0.00 | 0.00 | 0.00 | 54 | 1017.2 |
| 20260508132539 | 63 | 84 | 2.0 | 4.0 | 0.00 | 0.00 | 0.00 | 54 | 1017.2 |
| 20260508132043 | 64 | 80 | 3.0 | 4.0 | 0.00 | 0.00 | 0.00 | 52 | 1017.2 |
| 20260508131623 | 63 | 49 | 2.0 | 4.0 | 0.00 | 0.00 | 0.00 | 54 | 1017.2 |
| 20260508131047 | 64 | 69 | 2.0 | 5.0 | 0.00 | 0.00 | 0.00 | 52 | 1017.2 |
| 20260508130544 | 64 | 26 | 1.0 | 4.0 | 0.00 | 0.00 | 0.00 | 49 | 1017.1 |
| 20260508130044 | 65 | 169 | 2.0 | 4.0 | 0.00 | 0.00 | 0.00 | 49 | 1017.2 |
| 20260508125547 | 64 | 46 | 2.0 | 6.0 | 0.00 | 0.00 | 0.00 | 50 | 1017.2 |
| 20260508125042 | 65 | 89 | 2.0 | 6.0 | 0.00 | 0.00 | 0.00 | 49 | 1017.2 |
| 20260508124547 | 65 | 5 | 1.0 | 6.0 | 0.00 | 0.00 | 0.00 | 49 | 1017.2 |
| 20260508124103 | 66 | 40 | 2.0 | 5.0 | 0.00 | 0.00 | 0.00 | 48 | 1017.2 |
| 20260508123554 | 66 | 92 | 2.0 | 6.0 | 0.00 | 0.00 | 0.00 | 52 | 1017.3 |
| 20260508123056 | 67 | 18 | 1.0 | 6.0 | 0.00 | 0.00 | 0.00 | 52 | 1017.3 |
| 20260508122602 | 66 | 34 | 2.0 | 6.0 | 0.00 | 0.00 | 0.00 | 52 | 1017.3 |
| 20260508122043 | 68 | 337 | 2.0 | 6.0 | 0.00 | 0.00 | 0.00 | 52 | 1017.2 |
| 20260508121546 | 66 | 41 | 2.0 | 5.0 | 0.00 | 0.00 | 0.00 | 55 | 1017.3 |
| 20260508121031 | 65 | 80 | 2.0 | 5.0 | 0.00 | 0.00 | 0.00 | 56 | 1017.3 |
| 20260508120546 | 65 | 327 | 1.0 | 6.0 | 0.00 | 0.00 | 0.00 | 53 | 1017.3 |
| 20260508120028 | 67 | 146 | 2.0 | 6.0 | 0.00 | 0.00 | 0.00 | 56 | 1017.3 |
| 20260508115600 | 65 | 23 | 1.0 | 4.0 | 0.00 | 0.00 | 0.00 | 60 | 1017.3 |
| 20260508115043 | 66 | 105 | 2.0 | 8.0 | 0.00 | 0.00 | 0.00 | 56 | 1017.3 |
| 20260508114537 | 67 | 101 | 3.0 | 8.0 | 0.00 | 0.00 | 0.00 | 56 | 1017.3 |
| 20260508114031 | 65 | 192 | 0.0 | 4.0 | 0.00 | 0.00 | 0.00 | 57 | 1017.3 |
| 20260508113530 | 64 | 41 | 1.0 | 5.0 | 0.00 | 0.00 | 0.00 | 56 | 1017.4 |
| 20260508113106 | 66 | 136 | 2.0 | 8.0 | 0.00 | 0.00 | 0.00 | 57 | 1017.4 |
| 20260508112610 | 65 | 44 | 3.0 | 8.0 | 0.00 | 0.00 | 0.00 | 59 | 1017.4 |
| 20260508112054 | 65 | 87 | 3.0 | 6.0 | 0.00 | 0.00 | 0.00 | 60 | 1017.4 |
| 20260508111546 | 65 | 62 | 3.0 | 6.0 | 0.00 | 0.00 | 0.00 | 62 | 1017.5 |
| 20260508111030 | 63 | 121 | 1.0 | 5.0 | 0.00 | 0.00 | 0.00 | 64 | 1017.5 |
| 20260508110536 | 62 | 355 | 2.0 | 5.0 | 0.00 | 0.00 | 0.00 | 66 | 1017.6 |
| 20260508110039 | 62 | 178 | 0.0 | 5.0 | 0.00 | 0.00 | 0.00 | 62 | 1017.5 |
| 20260508105550 | 61 | 85 | 1.0 | 5.0 | 0.00 | 0.00 | 0.00 | 64 | 1017.6 |
| 20260508105051 | 62 | 61 | 2.0 | 5.0 | 0.00 | 0.00 | 0.00 | 66 | 1017.5 |
| 20260508104536 | 61 | 84 | 2.0 | 5.0 | 0.00 | 0.00 | 0.00 | 66 | 1017.6 |
| 20260508104031 | 61 | 82 | 2.0 | 5.0 | 0.00 | 0.00 | 0.00 | 66 | 1017.6 |
| 20260508103547 | 62 | 23 | 2.0 | 5.0 | 0.00 | 0.00 | 0.00 | 66 | 1017.6 |
| 20260508103028 | 61 | 126 | 1.0 | 5.0 | 0.00 | 0.00 | 0.00 | 67 | 1017.6 |
| 20260508102535 | 62 | 81 | 1.0 | 5.0 | 0.00 | 0.00 | 0.00 | 67 | 1017.7 |
| 20260508102033 | 61 | 290 | 1.0 | 4.0 | 0.00 | 0.00 | 0.00 | 67 | 1017.7 |
| 20260508101552 | 60 | 100 | 2.0 | 5.0 | 0.00 | 0.00 | 0.00 | 69 | 1017.7 |
| 20260508101103 | 60 | 126 | 2.0 | 5.0 | 0.00 | 0.00 | 0.00 | 69 | 1017.7 |
| 20260508100536 | 60 | 344 | 2.0 | 5.0 | 0.00 | 0.00 | 0.00 | 71 | 1017.7 |
| 20260508100037 | 60 | 116 | 1.0 | 5.0 | 0.00 | 0.00 | 0.00 | 69 | 1017.9 |
| 20260508095529 | 59 | 44 | 1.0 | 4.0 | 0.00 | 0.00 | 0.00 | 70 | 1017.8 |
| 20260508095036 | 59 | 101 | 2.0 | 4.0 | 0.00 | 0.00 | 0.00 | 71 | 1017.8 |
| 20260508094602 | 58 | 355 | 1.0 | 6.0 | 0.00 | 0.00 | 0.00 | 71 | 1017.9 |
| 20260508094028 | 59 | 112 | 3.0 | 6.0 | 0.00 | 0.00 | 0.00 | 72 | 1017.9 |
| 20260508093552 | 58 | 24 | 2.0 | 6.0 | 0.00 | 0.00 | 0.00 | 72 | 1017.9 |
| 20260508093026 | 58 | 53 | 2.0 | 6.0 | 0.00 | 0.00 | 0.00 | 73 | 1017.9 |
| 20260508092534 | 58 | 51 | 0.0 | 4.0 | 0.00 | 0.00 | 0.00 | 72 | 1017.8 |
| 20260508092055 | 58 | 96 | 1.0 | 4.0 | 0.00 | 0.00 | 0.00 | 73 | 1017.8 |
| 20260508091552 | 57 | 109 | 1.0 | 4.0 | 0.00 | 0.00 | 0.00 | 72 | 1017.8 |
| 20260508091039 | 57 | 63 | 1.0 | 6.0 | 0.00 | 0.00 | 0.00 | 75 | 1017.9 |
| 20260508090531 | 57 | 86 | 1.0 | 6.0 | 0.00 | 0.00 | 0.00 | 75 | 1017.9 |
| 20260508085540 | 57 | 14 | 3.0 | 6.0 | 0.00 | 0.00 | 0.00 | 76 | 1017.8 |
| 20260508085100 | 56 | 80 | 1.0 | 5.0 | 0.00 | 0.00 | 0.00 | 75 | 1017.9 |
| 20260508084539 | 56 | 111 | 2.0 | 5.0 | 0.00 | 0.00 | 0.00 | 77 | 1017.9 |
| 20260508084031 | 56 | 101 | 2.0 | 6.0 | 0.00 | 0.00 | 0.00 | 76 | 1017.8 |
| 20260508083550 | 56 | 15 | 2.0 | 6.0 | 0.00 | 0.00 | 0.00 | 76 | 1017.8 |
| 20260508083038 | 56 | 86 | 2.0 | 5.0 | 0.00 | 0.00 | 0.00 | 77 | 1017.8 |
| 20260508082535 | 55 | 146 | 1.0 | 3.0 | 0.00 | 0.00 | 0.00 | 78 | 1017.8 |
| 20260508082049 | 54 | 173 | 1.0 | 3.0 | 0.00 | 0.00 | 0.00 | 78 | 1017.8 |
| 20260508081546 | 54 | 219 | 1.0 | 5.0 | 0.00 | 0.00 | 0.00 | 78 | 1017.7 |
| 20260508081022 | 55 | 155 | 0.0 | 5.0 | 0.00 | 0.00 | 0.00 | 78 | 1017.7 |
| 20260508080621 | 55 | 96 | 1.0 | 7.0 | 0.00 | 0.00 | 0.00 | 80 | 1017.8 |
| 20260508080047 | 54 | 32 | 2.0 | 7.0 | 0.00 | 0.00 | 0.00 | 80 | 1017.8 |
| 20260508075539 | 54 | 69 | 0.0 | 4.0 | 0.00 | 0.00 | 0.00 | 80 | 1017.7 |
| 20260508075036 | 54 | 69 | 3.0 | 4.0 | 0.00 | 0.00 | 0.00 | 80 | 1017.7 |
| 20260508074547 | 54 | 355 | 2.0 | 3.0 | 0.00 | 0.00 | 0.00 | 81 | 1017.6 |
| 20260508074029 | 53 | 84 | 1.0 | 5.0 | 0.00 | 0.00 | 0.00 | 80 | 1017.7 |
| 20260508073533 | 53 | 71 | 3.0 | 5.0 | 0.00 | 0.00 | 0.00 | 81 | 1017.7 |
| 20260508073054 | 53 | 42 | 2.0 | 5.0 | 0.00 | 0.00 | 0.00 | 82 | 1017.7 |
| 20260508072542 | 53 | 71 | 1.0 | 3.0 | 0.00 | 0.00 | 0.00 | 82 | 1017.7 |
| 20260508072048 | 53 | 149 | 0.0 | 3.0 | 0.00 | 0.00 | 0.00 | 81 | 1017.7 |
| 20260508071534 | 53 | 79 | 1.0 | 3.0 | 0.00 | 0.00 | 0.00 | 81 | 1017.7 |
| 20260508071034 | 53 | 97 | 1.0 | 5.0 | 0.00 | 0.00 | 0.00 | 81 | 1017.6 |
| 20260508070551 | 52 | 70 | 1.0 | 5.0 | 0.00 | 0.00 | 0.00 | 82 | 1017.5 |
| 20260508070056 | 52 | 132 | 1.0 | 5.0 | 0.00 | 0.00 | 0.00 | 82 | 1017.5 |
| 20260508065538 | 52 | 19 | 2.0 | 5.0 | 0.00 | 0.00 | 0.00 | 83 | 1017.5 |
| 20260508065039 | 52 | 79 | 2.0 | 3.0 | 0.00 | 0.00 | 0.00 | 83 | 1017.4 |
| 20260508064534 | 52 | 28 | 2.0 | 3.0 | 0.00 | 0.00 | 0.00 | 84 | 1017.4 |
| 20260508064037 | 52 | 153 | 2.0 | 3.0 | 0.00 | 0.00 | 0.00 | 83 | 1017.4 |
| 20260508063530 | 51 | 83 | 1.0 | 3.0 | 0.00 | 0.00 | 0.00 | 83 | 1017.4 |
| 20260508063048 | 51 | 86 | 1.0 | 5.0 | 0.00 | 0.00 | 0.00 | 84 | 1017.4 |
| 20260508062548 | 51 | 93 | 1.0 | 5.0 | 0.00 | 0.00 | 0.00 | 84 | 1017.3 |
| 20260508062112 | 51 | 95 | 2.0 | 3.0 | 0.00 | 0.00 | 0.00 | 85 | 1017.3 |
| 20260508061539 | 51 | 32 | 1.0 | 4.0 | 0.00 | 0.00 | 0.00 | 85 | 1017.3 |
| 20260508061032 | 51 | 123 | 2.0 | 4.0 | 0.00 | 0.00 | 0.00 | 84 | 1017.3 |
| 20260508060534 | 51 | 86 | 1.0 | 2.0 | 0.00 | 0.00 | 0.00 | 85 | 1017.3 |
| 20260508060037 | 51 | 105 | 1.0 | 3.0 | 0.00 | 0.00 | 0.00 | 85 | 1017.3 |
| 20260508055543 | 51 | 105 | 1.0 | 4.0 | 0.00 | 0.00 | 0.00 | 85 | 1017.3 |
| 20260508055046 | 51 | 105 | 2.0 | 4.0 | 0.00 | 0.00 | 0.00 | 85 | 1017.3 |
| 20260508054532 | 51 | 90 | 2.0 | 5.0 | 0.00 | 0.00 | 0.00 | 85 | 1017.3 |
| 20260508054025 | 51 | 88 | 1.0 | 3.0 | 0.00 | 0.00 | 0.00 | 85 | 1017.2 |
| 20260508053546 | 51 | 113 | 1.0 | 3.0 | 0.00 | 0.00 | 0.00 | 85 | 1017.2 |
| 20260508053027 | 50 | 76 | 2.0 | 4.0 | 0.00 | 0.00 | 0.00 | 85 | 1017.2 |
| 20260508052545 | 50 | 119 | 1.0 | 4.0 | 0.00 | 0.00 | 0.00 | 85 | 1017.1 |
| 20260508052040 | 50 | 105 | 1.0 | 4.0 | 0.00 | 0.00 | 0.00 | 85 | 1017.0 |
| 20260508051544 | 50 | 94 | 1.0 | 3.0 | 0.00 | 0.00 | 0.00 | 85 | 1017.0 |
| 20260508051036 | 50 | 104 | 0.0 | 3.0 | 0.00 | 0.00 | 0.00 | 85 | 1017.0 |
| 20260508050606 | 50 | 82 | 1.0 | 4.0 | 0.00 | 0.00 | 0.00 | 85 | 1016.9 |
| 20260508050025 | 50 | 121 | 2.0 | 4.0 | 0.00 | 0.00 | 0.00 | 85 | 1016.8 |
| 20260508045544 | 50 | 94 | 1.0 | 3.0 | 0.00 | 0.00 | 0.00 | 84 | 1016.8 |
| 20260508045052 | 50 | 103 | 1.0 | 4.0 | 0.00 | 0.00 | 0.00 | 84 | 1016.8 |
| 20260508044552 | 50 | 81 | 2.0 | 4.0 | 0.00 | 0.00 | 0.00 | 84 | 1016.8 |
| 20260508044034 | 50 | 94 | 1.0 | 5.0 | 0.00 | 0.00 | 0.00 | 85 | 1016.8 |
| 20260508043536 | 50 | 63 | 2.0 | 5.0 | 0.00 | 0.00 | 0.00 | 85 | 1016.8 |
| 20260508043042 | 50 | 78 | 2.0 | 4.0 | 0.00 | 0.00 | 0.00 | 85 | 1016.7 |
| 20260508042603 | 50 | 90 | 1.0 | 3.0 | 0.00 | 0.00 | 0.00 | 85 | 1016.6 |
| 20260508042053 | 50 | 76 | 1.0 | 3.0 | 0.00 | 0.00 | 0.00 | 85 | 1016.6 |
| 20260508041555 | 50 | 63 | 0.0 | 4.0 | 0.00 | 0.00 | 0.00 | 85 | 1016.6 |
| 20260508041037 | 50 | 72 | 1.0 | 4.0 | 0.00 | 0.00 | 0.00 | 85 | 1016.6 |
| 20260508040549 | 50 | 96 | 1.0 | 3.0 | 0.00 | 0.00 | 0.00 | 85 | 1016.6 |
| 20260508040029 | 50 | 195 | 1.0 | 4.0 | 0.00 | 0.00 | 0.00 | 85 | 1016.6 |
| 20260508035542 | 51 | 84 | 2.0 | 4.0 | 0.00 | 0.00 | 0.00 | 85 | 1016.6 |
| 20260508035037 | 51 | 90 | 1.0 | 5.0 | 0.00 | 0.00 | 0.00 | 84 | 1016.6 |
| 20260508034547 | 51 | 96 | 2.0 | 4.0 | 0.00 | 0.00 | 0.00 | 84 | 1016.6 |
| 20260508034043 | 51 | 80 | 2.0 | 5.0 | 0.00 | 0.00 | 0.00 | 84 | 1016.6 |
| 20260508033542 | 51 | 49 | 2.0 | 5.0 | 0.00 | 0.00 | 0.00 | 84 | 1016.6 |
| 20260508033035 | 51 | 91 | 2.0 | 7.0 | 0.00 | 0.00 | 0.00 | 84 | 1016.6 |
| 20260508032556 | 51 | 89 | 2.0 | 7.0 | 0.00 | 0.00 | 0.00 | 84 | 1016.6 |
| 20260508032039 | 51 | 99 | 1.0 | 5.0 | 0.00 | 0.00 | 0.00 | 84 | 1016.6 |
| 20260508031604 | 51 | 82 | 2.0 | 5.0 | 0.00 | 0.00 | 0.00 | 83 | 1016.7 |
| 20260508031048 | 51 | 84 | 0.0 | 5.0 | 0.00 | 0.00 | 0.00 | 83 | 1016.6 |
| 20260508030535 | 51 | 210 | 1.0 | 5.0 | 0.00 | 0.00 | 0.00 | 83 | 1016.5 |
| 20260508030036 | 51 | 49 | 1.0 | 2.0 | 0.00 | 0.00 | 0.00 | 83 | 1016.5 |
| 20260508025603 | 51 | 48 | 1.0 | 3.0 | 0.00 | 0.00 | 0.00 | 83 | 1016.4 |
| 20260508025031 | 51 | 92 | 2.0 | 4.0 | 0.00 | 0.00 | 0.00 | 82 | 1016.4 |
| 20260508024555 | 51 | 113 | 1.0 | 5.0 | 0.00 | 0.00 | 0.00 | 82 | 1016.5 |
| 20260508024052 | 51 | 41 | 2.0 | 4.0 | 0.00 | 0.00 | 0.00 | 82 | 1016.4 |
| 20260508023550 | 52 | 95 | 2.0 | 4.0 | 0.00 | 0.00 | 0.00 | 82 | 1016.4 |
| 20260508023044 | 52 | 98 | 1.0 | 3.0 | 0.00 | 0.00 | 0.00 | 82 | 1016.5 |
| 20260508022536 | 52 | 97 | 1.0 | 4.0 | 0.00 | 0.00 | 0.00 | 82 | 1016.5 |
| 20260508022056 | 52 | 92 | 2.0 | 5.0 | 0.00 | 0.00 | 0.00 | 82 | 1016.5 |
| 20260508021527 | 52 | 94 | 1.0 | 5.0 | 0.00 | 0.00 | 0.00 | 82 | 1016.4 |
| 20260508021035 | 52 | 71 | 2.0 | 5.0 | 0.00 | 0.00 | 0.00 | 82 | 1016.5 |
| 20260508020537 | 52 | 69 | 2.0 | 3.0 | 0.00 | 0.00 | 0.00 | 82 | 1016.4 |
| 20260508020028 | 52 | 97 | 1.0 | 3.0 | 0.00 | 0.00 | 0.00 | 81 | 1016.4 |
| 20260508015538 | 52 | 85 | 1.0 | 3.0 | 0.00 | 0.00 | 0.00 | 81 | 1016.4 |
| 20260508015052 | 52 | 69 | 1.0 | 5.0 | 0.00 | 0.00 | 0.00 | 81 | 1016.4 |
| 20260508014607 | 52 | 47 | 2.0 | 5.0 | 0.00 | 0.00 | 0.00 | 81 | 1016.4 |
| 20260508014025 | 52 | 94 | 2.0 | 3.0 | 0.00 | 0.00 | 0.00 | 81 | 1016.4 |
| 20260508013546 | 52 | 74 | 1.0 | 4.0 | 0.00 | 0.00 | 0.00 | 81 | 1016.4 |
| 20260508013031 | 52 | 104 | 2.0 | 4.0 | 0.00 | 0.00 | 0.00 | 81 | 1016.4 |
| 20260508012532 | 52 | 70 | 2.0 | 5.0 | 0.00 | 0.00 | 0.00 | 81 | 1016.5 |
| 20260508012032 | 53 | 90 | 2.0 | 5.0 | 0.00 | 0.00 | 0.00 | 80 | 1016.4 |
| 20260508011539 | 52 | 58 | 2.0 | 4.0 | 0.00 | 0.00 | 0.00 | 81 | 1016.4 |
| 20260508011034 | 53 | 87 | 1.0 | 5.0 | 0.00 | 0.00 | 0.00 | 81 | 1016.5 |
| 20260508010604 | 53 | 96 | 2.0 | 5.0 | 0.00 | 0.00 | 0.00 | 80 | 1016.5 |
| 20260508010027 | 53 | 82 | 1.0 | 6.0 | 0.00 | 0.00 | 0.00 | 80 | 1016.5 |